Other Surface Observations
Issued by NWS

Home | Current Version | Previous Version | Text Only | Print | Product List | Glossary On
Versions: 1 2 3 4 5 6 7 8 9 10 11 12 13 14 15 16 17 18 19 20 21 22 23 24 25 26 27 28 29 30 31 32 33 34 35 36 37 38 39 40 41 42 43 44 45 46 47 48 49 50
000
SXUS52 KTAE 040018
OSOTAE
OSOTAE
North Florida/South Alabama/Southwest Georgia Weather Roundup
National Weather Service Tallahassee Florida
800 PM EDT FRI JUL 03 2015

Note: "fair" indicates few or no clouds below 12,000 feet with no
significant weather and/or obstructions to visibility.

!FLZ017-115-028-034-025-040100
...North Florida...

CITY           SKY/WX    TMP DP  RH WIND       PRES   REMARKS
TALLAHASSEE    PTCLDY    89  74  60 S6        30.02R HX  98
APALACHICOLA   CLEAR     88  75  65 SW8       30.04S HX  97
PERRY          CLEAR     84  74  73 S6        30.05S HX  91
CROSS CITY       N/A     86  73  65 W5        30.05R HX  93
JACKSONVILLE   PTCLDY    87  73  62 SE8       30.02R HX  94
$$

!FLZ112-006-005-002-011-040100
...Florida Panhandle...

CITY           SKY/WX    TMP DP  RH WIND       PRES   REMARKS
MARIANNA       CLEAR     88  74  63 S7        30.00S HX  96
BONIFAY        FAIR      84  72  67 SW8       30.02S THUNDER
PANAMA CITY NW FAIR      85  74  69 S10       30.02S HX  92
TYNDALL AFB    CLEAR     85  76  76 SW7       30.03S HX  94
TYND DRONE APT FAIR      84  77  80 SW5       30.03S HX  94
DE FUNIAK SPR  FAIR      82  75  80 S5        30.03S
EGLIN AFB      MOCLDY    84  75  74 SW10      30.01F HX  92
DESTIN         PTCLDY    85  77  77 VRB7      30.02S HX  95
HURLBURT       PTCLDY    83  76  78 SW7       30.00F HX  92
CRESTVIEW      MOCLDY    85  75  72 S9        30.02S HX  93
PENSACOLA      MOCLDY    84  74  71 S13       30.00F HX  91
$$

!ALZ063-066-040100
...South Alabama...

CITY           SKY/WX    TMP DP  RH WIND       PRES   REMARKS
DOTHAN         CLEAR     87  73  62 S10       30.04S HX  94
OZARK CAIRNS   PTCLDY    84  66  54 S15G29    30.02R THUNDER
FT RUCKER HELI CLEAR     88  72  58 SW6       29.99S THUNDER HX  94
RUCKER HELI 3  FAIR      88  71  57 SW8       30.01S HX  94
RUCKER HELI 2  FAIR      87  75  67 S5        29.99S THUNDER HX  96
FLORALA APT    MOCLDY    82  72  69 S7        30.03R
ANDALUSIA      MOCLDY    87  69  54 CALM      30.00S HX  91
TROY           CLEAR     85  74  69 S5        30.00S HX  92
EUFALA         FAIR      85  70  60 CALM      29.99S
MOBILE         MOSUNNY   84  76  76 S10       30.01S HX  93
$$

!GAZ120>161-040100
...Southwest and South Central Georgia...

CITY           SKY/WX    TMP DP  RH WIND       PRES   REMARKS
THOMASVILLE    FAIR      82  72  69 CALM      30.04R
BAINBRIDGE     PTCLDY    88  72  58 SW3       30.02S HX  94
MOODY AFB      CLEAR     89  69  51 SW5       30.01S HX  94
VALDOSTA       CLEAR     87  72  60 SW3       30.02S HX  93
MOULTRIE       PTCLDY    88  73  62 SW5       30.03S HX  96
BLAKELY        CLEAR     86  77  74 CALM      30.01S HX  97
ALBANY         PTCLDY    87  73  62 SW6       30.02S HX  94
TIFTON         FAIR      87  68  53 SW5       30.02S HX  91
FITZGERALD     FAIR      87  71  57 SW5       30.03S HX  93
CORDELE        FAIR      89  74  60 SW6       30.01S HX  97
AMERICUS       FAIR      86  68  54 SW5       30.01F
HOMERVILLE     FAIR      90  73  58 W3        30.03S HX  98
$$

!GMZ750-755-770-775-040100
...Coastal and Buoy Obs...

STATION/POSITION TIME  TEMP    WIND        PRES    VSBY  WAVE
                       AIR SEA DIR/SP/G                  HT/PER
                 (UTC) (F)     (DEG/KT/KT) (MB)    (MI)  (FT/S)
KEATON BEACH     0000   84     220/  8/ 11 1017.7F
CEDAR KEY        0000   86     270/  6/  7 1017.9F
C TOWER          0000   83     220/  6/  6 1017.7R
APALACHICOLA BUO 2350   86 88  240/  2/  4 1018.1R         2/ 4
PANAMA CITY BUOY 2350   85 87  200/  4/  4 1017.8F         2/ 6
MOBILE BUOY      2350   85 86  200/  6/  8 1017.1F         2/ 5
ORANGE BCH AL BU 2350   84 84  200/ 10/ 12 1015.7F         2/ 6
$$



USA.gov is the U.S. government's official web portal to all federal, state and local government web resources and services.